Simultaneous Nadir Overpasses (SNOs) Predictions

Prediction of SNOs between NOAA-19 and TERRA Satellite Orbit:

Table of predicted SNOs for the next 14.0 days since TLE Epoch: 6/24/2015
Index Date (NOAA-19) Time (NOAA-19) Lat,Lon (NOAA-19) SZA (NOAA-19 ) Date (TERRA) Time (TERRA) Lat,Lon (TERRA) SZA (TERRA ) Distance(km) Time Diff (sec)
1 06/25/2015 16:25:48 72.14, -62.59 48.69 06/25/2015 16:26:22 72.13, -62.53 48.69 2.04 34
2 06/25/2015 17:16:41 -72.03, 104.88 131.41 06/25/2015 17:15:52 -72.01, 104.89 131.44 2.77 49
3 06/27/2015 21:09:23 72.87,-134.93 49.48 06/27/2015 21:10:29 72.79,-132.40 49.45 83.62 66
4 06/27/2015 22:00:03 -72.10, 33.94 131.27 06/27/2015 22:00:10 -72.08, 33.94 131.29 2.47 7
5 06/27/2015 22:50:55 71.32,-157.35 47.99 06/27/2015 22:49:48 71.40,-159.58 48.01 79.92 67
6 06/30/2015 02:43:25 -72.18, -37.00 131.09 06/30/2015 02:44:27 -72.20, -36.94 131.06 3.27 62
7 06/30/2015 03:34:30 72.08, 130.42 48.82 06/30/2015 03:33:55 72.05, 130.45 48.79 2.75 35
8 07/02/2015 08:17:51 72.12, 59.53 49.01 07/02/2015 08:18:13 72.10, 59.46 48.99 3.35 22
9 07/02/2015 09:08:45 -72.02,-133.00 131.09 07/02/2015 09:07:42 -72.05,-133.01 131.07 2.63 63
10 07/04/2015 13:01:17 72.43, -11.88 49.48 07/04/2015 13:02:28 72.31, -11.26 49.37 25.16 71
11 07/04/2015 13:52:07 -72.10, 156.04 130.83 07/04/2015 13:52:00 -72.09, 155.99 130.85 2.09 7
12 07/06/2015 18:35:29 -72.19, 85.07 130.54 07/06/2015 18:36:17 -72.18, 85.07 130.55 1.13 48
13 07/06/2015 19:26:32 72.05,-107.43 49.33 07/06/2015 19:25:44 72.08,-107.47 49.35 2.95 48




NCC Satellite Simultaneous Nadir Overpasses (SNOs) Prediction Service
